User: anonymous   Login
Location: Valdosta
(30.8330°N, 83.2790°W)
Time: 18:37:05
(UTC-05:00)
Language:

Oscar 19 - Orbit

View from above orbital plane
View from above orbital plane
View from above satellite
View from above satellite

Ground track
Ground track

The orbit data is extracted from the following two-line orbital elements,

1 20442U 90005G   14352.39219154  .00000331  00000-0  13750-3 0  1308
2 20442 098.4969 286.5067 0010970 328.0801 031.9718 14.32651512301050
Epoch (UTC): 18 December 2014 09:24:45
Eccentricity: 0.0010970
inclination: 98.4969°
perigee height: 775 km
apogee height: 791 km
right ascension of ascending node: 286.5067°
argument of perigee: 328.0801°
revolutions per day: 14.32651512
mean anomaly at epoch: 31.9718°
orbit number at epoch: 30105

The dashed part of the orbit path shows where the satellite is in the earth's shadow,  

DLR